Meteo Giornale » Osservazioni meteo Italia » Lamezia Terme

ore: 12:50 - Osservazioni Meteo Lamezia Terme
Lat. 38° 54' N Lon. 16° 15' E Alt. 15 metri s.l.m.

poco_nuvoloso Europe/Rome

24 °C

Poco Nuvoloso

Temp. 24 Ore

20 °C

24 °C

Est

40.7 Km/h

Dew point 15 °C

Umidità 57 %

Visibilità  10 Km

Il sole sorge alle ore 07:06

Il sole tramonta alle ore 18:13

Data e Ora Cielo e Fenomeni T °C DP °C Um. % Pres. hPa Vis. km Vento km/h
Oggi h: 12:50 poco_nuvoloso Poco Nuvoloso 24 15 57 1012 10 E 40.7
Oggi h: 11:50 poco_nuvoloso Poco Nuvoloso 23 16 64 1013 10 E 37
Oggi h: 10:50 poco_nuvoloso Poco Nuvoloso 23 16 64 1013 10 E/NE 40.7
Oggi h: 09:50 poco_nuvoloso Poco Nuvoloso 22 16 68 1013 10 E/NE 37
Oggi h: 08:50 poco_nuvoloso Poco Nuvoloso 21 17 77 1013 10 E/NE 33.3
Oggi h: 07:50 poco_nuvoloso Poco Nuvoloso 20 17 82 1012 10 E/NE 33.3
Oggi h: 06:50 poco_nuvoloso Poco Nuvoloso 20 17 82 1012 10 E/NE 31.5
Oggi h: 05:50 poco_nuvoloso Poco Nuvoloso 20 17 82 1013 10 E/NE 25.9
Oggi h: 04:50 poco_nuvoloso Poco Nuvoloso 20 17 82 1013 10 E/NE 27.8
Oggi h: 03:50 poco_nuvoloso Poco Nuvoloso 20 17 82 1013 10 E/NE 29.6
Oggi h: 02:50 poco_nuvoloso Poco Nuvoloso 20 17 82 1013 10 E/NE 25.9
Oggi h: 01:50 poco_nuvoloso Poco Nuvoloso 20 17 82 1014 10 E/NE 16.7
Oggi h: 00:50 poco_nuvoloso Poco Nuvoloso 20 17 82 1014 10 E/NE 18.5
Ieri h: 23:50 poco_nuvoloso Poco Nuvoloso 20 17 82 1014 10 NE 20.3
Ieri h: 22:50 poco_nuvoloso Poco Nuvoloso 20 18 88 1015 10 E/NE 24
Ieri h: 21:50 nuvoloso Nuvoloso 20 17 82 1015 10 E/NE 24
Ieri h: 20:50 nuvoloso Nuvoloso 20 18 88 1015 10 NE 24
Ieri h: 19:50 nuvoloso Nuvoloso 21 18 82 1015 10 E/NE 18.5
Ieri h: 18:50 nuvoloso Nuvoloso 22 18 78 1015 10 E/NE 25.9
Ieri h: 16:50 nuvoloso Nuvoloso 23 18 73 1014 10 E/NE 27.8
Ieri h: 14:50 nuvoloso Nuvoloso 24 18 69 1015 10 E 31.5